Location: Gauravaram
(16.6995°N, 80.5417°E)
Time: 08:25:50
(UTC+00:00)

COSMOS 2406 - Pass Details

Date: 03 August 2024
Orbit: 846 x 859 km, 71.0° (Epoch: 13 September)

Event Time Altitude Azimuth Distance (km) Brightness Sun altitude
Rises 14:52:31 0° 345° (NNW) 3,402 7.0 -23.6°
Reaches altitude 10° 14:54:57 10° 346° (NNW) 2,467 6.1 -24.2°
Maximum altitude 15:00:37 79° 73° (ENE) 865 3.1 -25.4°
Enters shadow 15:01:18 68° 135° (SE) 908 3.0 -25.5°
